| time (UTC) | temp F | wind direction | speed knots | gust knots | rain 1hr in | rain 24hr in | rain mn in | humidity % | barometer mb |
| 20260906220514 | 86 | 99 | 2.6 | 9.6 | 0.00 | 0.00 | 0.00 | 28 | 1021.9 |
| 20260906220024 | 86 | 81 | 2.6 | 9.6 | 0.00 | 0.00 | 0.00 | 28 | 1021.9 |
| 20260906215518 | 86 | 105 | 0.9 | 9.6 | 0.00 | 0.00 | 0.00 | 26 | 1022.1 |
| 20260906215013 | 86 | 117 | 2.6 | 9.6 | 0.00 | 0.00 | 0.00 | 28 | 1022.1 |
| 20260906214539 | 86 | 146 | 2.6 | 8.7 | 0.00 | 0.00 | 0.00 | 28 | 1022.0 |
| 20260906214014 | 86 | 71 | 1.7 | 9.6 | 0.00 | 0.00 | 0.00 | 28 | 1022.1 |
| 20260906213516 | 86 | 223 | 1.7 | 9.6 | 0.00 | 0.00 | 0.00 | 28 | 1022.1 |
| 20260906213030 | 86 | 79 | 2.6 | 9.6 | 0.00 | 0.00 | 0.00 | 27 | 1022.1 |
| 20260906212507 | 86 | 155 | 0.9 | 9.6 | 0.00 | 0.00 | 0.00 | 27 | 1022.3 |
| 20260906212010 | 86 | 131 | 3.5 | 9.6 | 0.00 | 0.00 | 0.00 | 28 | 1022.2 |
| 20260906211516 | 85 | 177 | 2.6 | 9.6 | 0.00 | 0.00 | 0.00 | 28 | 1022.2 |
| 20260906211012 | 86 | 98 | 2.6 | 7.8 | 0.00 | 0.00 | 0.00 | 27 | 1022.4 |
| 20260906210515 | 87 | 217 | 3.5 | 9.6 | 0.00 | 0.00 | 0.00 | 26 | 1022.5 |
| 20260906210039 | 87 | 85 | 3.5 | 9.6 | 0.00 | 0.00 | 0.00 | 26 | 1022.5 |
| 20260906205513 | 88 | 102 | 1.7 | 7.0 | 0.00 | 0.00 | 0.00 | 26 | 1022.5 |
| 20260906205014 | 87 | 135 | 0.9 | 10.4 | 0.00 | 0.00 | 0.00 | 26 | 1022.5 |
| 20260906204526 | 87 | 40 | 4.3 | 10.4 | 0.00 | 0.00 | 0.00 | 26 | 1022.5 |
| 20260906204016 | 87 | 68 | 0.0 | 8.7 | 0.00 | 0.00 | 0.00 | 27 | 1022.6 |
| 20260906203504 | 86 | 234 | 3.5 | 9.6 | 0.00 | 0.00 | 0.00 | 27 | 1022.5 |
| 20260906203008 | 87 | 105 | 1.7 | 9.6 | 0.00 | 0.00 | 0.00 | 27 | 1022.5 |
| 20260906202506 | 87 | 194 | 3.5 | 8.7 | 0.00 | 0.00 | 0.00 | 26 | 1022.6 |
| 20260906202008 | 87 | 248 | 2.6 | 7.8 | 0.00 | 0.00 | 0.00 | 27 | 1022.7 |
| 20260906201510 | 86 | 184 | 3.5 | 9.6 | 0.00 | 0.00 | 0.00 | 26 | 1022.7 |
| 20260906201012 | 86 | 146 | 2.6 | 8.7 | 0.00 | 0.00 | 0.00 | 27 | 1022.7 |
| 20260906200511 | 86 | 143 | 2.6 | 8.7 | 0.00 | 0.00 | 0.00 | 27 | 1022.8 |
| 20260906200016 | 86 | 144 | 2.6 | 8.7 | 0.00 | 0.00 | 0.00 | 28 | 1022.8 |
| 20260906195504 | 85 | 113 | 1.7 | 11.3 | 0.00 | 0.00 | 0.00 | 29 | 1022.8 |
| 20260906195003 | 86 | 224 | 6.1 | 11.3 | 0.00 | 0.00 | 0.00 | 28 | 1022.8 |
| 20260906194508 | 86 | 186 | 2.6 | 7.0 | 0.00 | 0.00 | 0.00 | 28 | 1022.9 |
| 20260906194003 | 86 | 147 | 3.5 | 9.6 | 0.00 | 0.00 | 0.00 | 28 | 1022.9 |
| 20260906193504 | 86 | 175 | 3.5 | 9.6 | 0.00 | 0.00 | 0.00 | 27 | 1022.9 |
| 20260906193003 | 86 | 150 | 0.9 | 8.7 | 0.00 | 0.00 | 0.00 | 28 | 1022.9 |
| 20260906192506 | 86 | 159 | 1.7 | 8.7 | 0.00 | 0.00 | 0.00 | 28 | 1023.0 |
| 20260906192006 | 85 | 171 | 0.9 | 7.8 | 0.00 | 0.00 | 0.00 | 28 | 1023.1 |
| 20260906191512 | 85 | 73 | 1.7 | 10.4 | 0.00 | 0.00 | 0.00 | 29 | 1023.1 |
| 20260906191008 | 84 | 74 | 2.6 | 10.4 | 0.00 | 0.00 | 0.00 | 29 | 1023.2 |
| 20260906190510 | 84 | 128 | 3.5 | 9.6 | 0.00 | 0.00 | 0.00 | 28 | 1023.4 |
| 20260906190022 | 85 | 144 | 1.7 | 9.6 | 0.00 | 0.00 | 0.00 | 28 | 1023.5 |
| 20260906185509 | 84 | 220 | 1.7 | 9.6 | 0.00 | 0.00 | 0.00 | 29 | 1023.5 |
| 20260906185013 | 84 | 171 | 1.7 | 11.3 | 0.00 | 0.00 | 0.00 | 29 | 1023.6 |
| 20260906184523 | 83 | 83 | 1.7 | 11.3 | 0.00 | 0.00 | 0.00 | 29 | 1023.6 |
| 20260906184003 | 83 | 267 | 1.7 | 8.7 | 0.00 | 0.00 | 0.00 | 30 | 1023.6 |
| 20260906183503 | 84 | 120 | 1.7 | 7.0 | 0.00 | 0.00 | 0.00 | 29 | 1023.7 |
| 20260906183004 | 83 | 94 | 2.6 | 9.6 | 0.00 | 0.00 | 0.00 | 31 | 1023.9 |
| 20260906182507 | 82 | 142 | 2.6 | 10.4 | 0.00 | 0.00 | 0.00 | 32 | 1024.0 |
| 20260906182006 | 82 | 148 | 3.5 | 9.6 | 0.00 | 0.00 | 0.00 | 32 | 1024.1 |
| 20260906181521 | 81 | 252 | 2.6 | 9.6 | 0.00 | 0.00 | 0.00 | 34 | 1024.1 |
| 20260906181006 | 81 | 196 | 1.7 | 13.0 | 0.00 | 0.00 | 0.00 | 36 | 1024.3 |
| 20260906180512 | 81 | 214 | 5.2 | 13.0 | 0.00 | 0.00 | 0.00 | 36 | 1024.3 |
| 20260906180014 | 81 | 188 | 3.5 | 9.6 | 0.00 | 0.00 | 0.00 | 37 | 1024.4 |
| 20260906175512 | 81 | 149 | 2.6 | 8.7 | 0.00 | 0.00 | 0.00 | 36 | 1024.6 |
| 20260906175015 | 81 | 205 | 1.7 | 8.7 | 0.00 | 0.00 | 0.00 | 36 | 1024.7 |
| 20260906174518 | 81 | 86 | 1.7 | 7.8 | 0.00 | 0.00 | 0.00 | 36 | 1024.7 |
| 20260906174011 | 81 | 85 | 2.6 | 9.6 | 0.00 | 0.00 | 0.00 | 34 | 1024.6 |
| 20260906173512 | 82 | 88 | 2.6 | 11.3 | 0.00 | 0.00 | 0.00 | 34 | 1024.6 |
| 20260906173004 | 82 | 180 | 4.3 | 11.3 | 0.00 | 0.00 | 0.00 | 32 | 1024.5 |
| 20260906172503 | 82 | 139 | 2.6 | 8.7 | 0.00 | 0.00 | 0.00 | 31 | 1024.5 |
| 20260906172004 | 82 | 196 | 0.9 | 8.7 | 0.00 | 0.00 | 0.00 | 30 | 1024.6 |
| 20260906171505 | 82 | 88 | 0.9 | 8.7 | 0.00 | 0.00 | 0.00 | 31 | 1024.6 |
| 20260906171008 | 82 | 80 | 3.5 | 10.4 | 0.00 | 0.00 | 0.00 | 29 | 1024.7 |
| 20260906170508 | 82 | 166 | 4.3 | 10.4 | 0.00 | 0.00 | 0.00 | 30 | 1024.8 |
| 20260906170009 | 82 | 114 | 0.9 | 6.1 | 0.00 | 0.00 | 0.00 | 30 | 1024.8 |
| 20260906165510 | 81 | 183 | 1.7 | 7.0 | 0.00 | 0.00 | 0.00 | 32 | 1024.8 |
| 20260906165011 | 81 | 157 | 2.6 | 7.8 | 0.00 | 0.00 | 0.00 | 32 | 1024.8 |
| 20260906164517 | 81 | 119 | 2.6 | 7.8 | 0.00 | 0.00 | 0.00 | 32 | 1024.9 |
| 20260906164010 | 81 | 352 | 0.9 | 6.1 | 0.00 | 0.00 | 0.00 | 31 | 1024.9 |
| 20260906163510 | 80 | 143 | 0.9 | 6.1 | 0.00 | 0.00 | 0.00 | 29 | 1024.9 |
| 20260906163026 | 80 | 161 | 2.6 | 6.1 | 0.00 | 0.00 | 0.00 | 30 | 1024.9 |
| 20260906162513 | 80 | 199 | 1.7 | 4.3 | 0.00 | 0.00 | 0.00 | 29 | 1024.9 |
| 20260906162016 | 79 | 188 | 1.7 | 6.1 | 0.00 | 0.00 | 0.00 | 30 | 1024.8 |
| 20260906161509 | 79 | 167 | 2.6 | 6.1 | 0.00 | 0.00 | 0.00 | 29 | 1024.7 |
| 20260906161006 | 78 | 190 | 1.7 | 6.1 | 0.00 | 0.00 | 0.00 | 30 | 1024.8 |
| 20260906160506 | 78 | 134 | 3.5 | 5.2 | 0.00 | 0.00 | 0.00 | 30 | 1024.8 |
| 20260906160024 | 77 | 199 | 2.6 | 5.2 | 0.00 | 0.00 | 0.00 | 32 | 1024.8 |
| 20260906155512 | 76 | 222 | 0.0 | 6.1 | 0.00 | 0.00 | 0.00 | 33 | 1024.8 |
| 20260906155010 | 76 | 98 | 0.9 | 6.1 | 0.00 | 0.00 | 0.00 | 34 | 1024.8 |
| 20260906154531 | 75 | 90 | 1.7 | 5.2 | 0.00 | 0.00 | 0.00 | 33 | 1024.8 |
| 20260906154011 | 74 | 88 | 1.7 | 3.5 | 0.00 | 0.00 | 0.00 | 35 | 1024.9 |
| 20260906153515 | 73 | 76 | 0.9 | 3.5 | 0.00 | 0.00 | 0.00 | 35 | 1024.9 |
| 20260906153025 | 72 | 86 | 0.9 | 3.5 | 0.00 | 0.00 | 0.00 | 37 | 1024.9 |
| 20260906152512 | 71 | 105 | 0.0 | 2.6 | 0.00 | 0.00 | 0.00 | 38 | 1024.9 |
| 20260906152016 | 71 | 176 | 1.7 | 2.6 | 0.00 | 0.00 | 0.00 | 37 | 1024.9 |
| 20260906151526 | 70 | 61 | 0.0 | 3.5 | 0.00 | 0.00 | 0.00 | 38 | 1025.1 |
| 20260906151018 | 69 | 302 | 0.9 | 7.0 | 0.00 | 0.00 | 0.00 | 38 | 1025.3 |
| 20260906150503 | 69 | 263 | 1.7 | 7.0 | 0.00 | 0.00 | 0.00 | 39 | 1025.3 |
| 20260906150012 | 68 | 268 | 2.6 | 6.1 | 0.00 | 0.00 | 0.00 | 40 | 1025.3 |
| 20260906145506 | 67 | 275 | 1.7 | 7.0 | 0.00 | 0.00 | 0.00 | 42 | 1025.3 |
| 20260906145007 | 67 | 248 | 3.5 | 7.0 | 0.00 | 0.00 | 0.00 | 43 | 1025.4 |
| 20260906144515 | 66 | 244 | 4.3 | 7.0 | 0.00 | 0.00 | 0.00 | 44 | 1025.4 |
| 20260906144011 | 65 | 261 | 3.5 | 7.0 | 0.00 | 0.00 | 0.00 | 45 | 1025.3 |
| 20260906143512 | 64 | 288 | 3.5 | 7.8 | 0.00 | 0.00 | 0.00 | 46 | 1025.3 |
| 20260906143018 | 63 | 267 | 4.3 | 7.8 | 0.00 | 0.00 | 0.00 | 48 | 1025.3 |
| 20260906142517 | 62 | 261 | 5.2 | 7.8 | 0.00 | 0.00 | 0.00 | 49 | 1025.5 |
| 20260906142016 | 61 | 236 | 4.3 | 7.8 | 0.00 | 0.00 | 0.00 | 50 | 1025.5 |
| 20260906141526 | 60 | 250 | 3.5 | 7.0 | 0.00 | 0.00 | 0.00 | 51 | 1025.5 |
| 20260906141016 | 60 | 259 | 2.6 | 5.2 | 0.00 | 0.00 | 0.00 | 52 | 1025.6 |
| 20260906140521 | 60 | 254 | 2.6 | 6.1 | 0.00 | 0.00 | 0.00 | 53 | 1025.6 |
| 20260906140041 | 59 | 263 | 2.6 | 6.1 | 0.00 | 0.00 | 0.00 | 53 | 1025.5 |
| 20260906135518 | 59 | 253 | 1.7 | 6.1 | 0.00 | 0.00 | 0.00 | 56 | 1025.5 |
| 20260906135006 | 58 | 253 | 0.9 | 6.1 | 0.00 | 0.00 | 0.00 | 56 | 1025.5 |
| 20260906134512 | 58 | 240 | 2.6 | 6.1 | 0.00 | 0.00 | 0.00 | 55 | 1025.5 |
| 20260906134008 | 57 | 223 | 2.6 | 6.1 | 0.00 | 0.00 | 0.00 | 57 | 1025.5 |
| 20260906133511 | 56 | 261 | 2.6 | 5.2 | 0.00 | 0.00 | 0.00 | 59 | 1025.4 |
| 20260906133016 | 56 | 318 | 0.9 | 2.6 | 0.00 | 0.00 | 0.00 | 60 | 1025.4 |
| 20260906132518 | 56 | 265 | 0.0 | 2.6 | 0.00 | 0.00 | 0.00 | 59 | 1025.3 |
| 20260906132014 | 56 | 265 | 0.9 | 4.3 | 0.00 | 0.00 | 0.00 | 59 | 1025.3 |
| 20260906131522 | 56 | 224 | 0.9 | 6.1 | 0.00 | 0.00 | 0.00 | 57 | 1025.3 |
| 20260906131016 | 56 | 230 | 1.7 | 6.1 | 0.00 | 0.00 | 0.00 | 57 | 1025.1 |
| 20260906130515 | 56 | 272 | 2.6 | 6.1 | 0.00 | 0.00 | 0.00 | 57 | 1025.0 |
| 20260906130039 | 57 | 240 | 1.7 | 7.8 | 0.00 | 0.00 | 0.00 | 56 | 1024.9 |
| 20260906125517 | 57 | 292 | 3.5 | 8.7 | 0.00 | 0.00 | 0.00 | 56 | 1024.9 |
| 20260906125020 | 57 | 270 | 5.2 | 10.4 | 0.00 | 0.00 | 0.00 | 56 | 1024.8 |
| 20260906124530 | 57 | 260 | 4.3 | 10.4 | 0.00 | 0.00 | 0.00 | 56 | 1024.7 |
| 20260906124023 | 57 | 253 | 7.0 | 11.3 | 0.00 | 0.00 | 0.00 | 56 | 1024.7 |
| 20260906123510 | 57 | 251 | 7.8 | 11.3 | 0.00 | 0.00 | 0.00 | 57 | 1024.7 |
| 20260906123015 | 56 | 240 | 7.0 | 9.6 | 0.00 | 0.00 | 0.00 | 57 | 1024.8 |
| 20260906122512 | 57 | 239 | 5.2 | 7.8 | 0.00 | 0.00 | 0.00 | 57 | 1024.7 |
| 20260906122011 | 57 | 263 | 3.5 | 7.0 | 0.00 | 0.00 | 0.00 | 57 | 1024.7 |
| 20260906121523 | 57 | 250 | 3.5 | 8.7 | 0.00 | 0.00 | 0.00 | 56 | 1024.8 |
| 20260906121015 | 57 | 257 | 3.5 | 8.7 | 0.00 | 0.00 | 0.00 | 56 | 1024.8 |
| 20260906120516 | 57 | 219 | 4.3 | 8.7 | 0.00 | 0.00 | 0.00 | 56 | 1024.7 |
| 20260906120030 | 57 | 252 | 6.1 | 9.6 | 0.00 | 0.00 | 0.00 | 56 | 1024.9 |
| 20260906115519 | 57 | 267 | 6.1 | 9.6 | 0.00 | 0.00 | 0.00 | 56 | 1024.9 |
| 20260906115014 | 57 | 253 | 6.1 | 8.7 | 0.00 | 0.00 | 0.00 | 57 | 1024.9 |
| 20260906114534 | 57 | 247 | 4.3 | 7.8 | 0.00 | 0.00 | 0.00 | 57 | 1025.0 |
| 20260906114021 | 56 | 271 | 5.2 | 7.8 | 0.00 | 0.00 | 0.00 | 57 | 1025.1 |
| 20260906113503 | 56 | 277 | 4.3 | 7.0 | 0.00 | 0.00 | 0.00 | 58 | 1025.1 |
| 20260906113004 | 56 | 294 | 2.6 | 4.3 | 0.00 | 0.00 | 0.00 | 58 | 1025.1 |
| 20260906112503 | 56 | 265 | 0.0 | 5.2 | 0.00 | 0.00 | 0.00 | 57 | 1025.1 |
| 20260906112005 | 57 | 265 | 0.0 | 7.0 | 0.00 | 0.00 | 0.00 | 57 | 1025.2 |
| 20260906111506 | 57 | 242 | 4.3 | 7.0 | 0.00 | 0.00 | 0.00 | 56 | 1025.1 |
| 20260906111003 | 57 | 263 | 3.5 | 7.0 | 0.00 | 0.00 | 0.00 | 56 | 1025.1 |
| 20260906110504 | 57 | 224 | 3.5 | 7.8 | 0.00 | 0.00 | 0.00 | 56 | 1025.1 |
| 20260906110011 | 57 | 164 | 2.6 | 10.4 | 0.00 | 0.00 | 0.00 | 56 | 1025.1 |
| 20260906105505 | 57 | 261 | 7.0 | 10.4 | 0.00 | 0.00 | 0.00 | 56 | 1025.0 |
| 20260906105006 | 58 | 236 | 2.6 | 7.8 | 0.00 | 0.00 | 0.00 | 55 | 1025.0 |
| 20260906104512 | 58 | 254 | 4.3 | 8.7 | 0.00 | 0.00 | 0.00 | 54 | 1024.9 |
| 20260906104004 | 58 | 298 | 2.6 | 8.7 | 0.00 | 0.00 | 0.00 | 54 | 1025.0 |
| 20260906103502 | 58 | 259 | 5.2 | 9.6 | 0.00 | 0.00 | 0.00 | 54 | 1025.1 |
| 20260906103004 | 59 | 250 | 7.0 | 9.6 | 0.00 | 0.00 | 0.00 | 54 | 1025.0 |
| 20260906102504 | 59 | 255 | 7.0 | 9.6 | 0.00 | 0.00 | 0.00 | 54 | 1025.1 |
| 20260906102002 | 59 | 258 | 7.0 | 9.6 | 0.00 | 0.00 | 0.00 | 54 | 1025.0 |
| 20260906101505 | 59 | 262 | 7.0 | 10.4 | 0.00 | 0.00 | 0.00 | 53 | 1025.0 |
| 20260906101006 | 59 | 259 | 7.8 | 11.3 | 0.00 | 0.00 | 0.00 | 53 | 1024.9 |
| 20260906100504 | 59 | 232 | 7.0 | 11.3 | 0.00 | 0.00 | 0.00 | 53 | 1025.0 |
| 20260906100010 | 59 | 244 | 7.8 | 10.4 | 0.00 | 0.00 | 0.00 | 53 | 1025.1 |
| 20260906095503 | 59 | 252 | 6.1 | 9.6 | 0.00 | 0.00 | 0.00 | 53 | 1025.2 |
| 20260906095003 | 59 | 225 | 6.1 | 9.6 | 0.00 | 0.00 | 0.00 | 53 | 1025.2 |
| 20260906094504 | 59 | 232 | 5.2 | 8.7 | 0.00 | 0.00 | 0.00 | 53 | 1025.2 |
| 20260906094004 | 59 | 235 | 5.2 | 11.3 | 0.00 | 0.00 | 0.00 | 53 | 1025.1 |
| 20260906093506 | 60 | 246 | 5.2 | 11.3 | 0.00 | 0.00 | 0.00 | 52 | 1025.1 |
| 20260906093005 | 60 | 286 | 7.0 | 11.3 | 0.00 | 0.00 | 0.00 | 52 | 1025.1 |
| 20260906092506 | 59 | 277 | 4.3 | 8.7 | 0.00 | 0.00 | 0.00 | 53 | 1025.1 |
| 20260906092006 | 60 | 258 | 3.5 | 7.8 | 0.00 | 0.00 | 0.00 | 52 | 1025.1 |
| 20260906091514 | 60 | 288 | 1.7 | 8.7 | 0.00 | 0.00 | 0.00 | 52 | 1025.1 |
| 20260906091004 | 60 | 268 | 3.5 | 9.6 | 0.00 | 0.00 | 0.00 | 52 | 1025.0 |
| 20260906090509 | 61 | 248 | 7.0 | 9.6 | 0.00 | 0.00 | 0.00 | 51 | 1024.9 |
| 20260906090009 | 61 | 204 | 6.1 | 8.7 | 0.00 | 0.00 | 0.00 | 51 | 1024.9 |
| 20260906085504 | 61 | 221 | 4.3 | 8.7 | 0.00 | 0.00 | 0.00 | 50 | 1024.9 |
| 20260906085010 | 61 | 240 | 0.9 | 8.7 | 0.00 | 0.00 | 0.00 | 50 | 1024.9 |
| 20260906084516 | 62 | 290 | 2.6 | 10.4 | 0.00 | 0.00 | 0.00 | 49 | 1024.9 |
| 20260906084004 | 62 | 241 | 6.1 | 10.4 | 0.00 | 0.00 | 0.00 | 49 | 1025.0 |
| 20260906083507 | 62 | 225 | 7.8 | 13.0 | 0.00 | 0.00 | 0.00 | 49 | 1025.0 |
| 20260906083004 | 62 | 228 | 8.7 | 13.0 | 0.00 | 0.00 | 0.00 | 49 | 1024.9 |
| 20260906082505 | 62 | 265 | 7.0 | 11.3 | 0.00 | 0.00 | 0.00 | 49 | 1025.0 |
| 20260906082008 | 62 | 261 | 5.2 | 9.6 | 0.00 | 0.00 | 0.00 | 50 | 1025.0 |
| 20260906081526 | 62 | 254 | 6.1 | 9.6 | 0.00 | 0.00 | 0.00 | 50 | 1025.1 |
| 20260906081006 | 62 | 222 | 1.7 | 7.0 | 0.00 | 0.00 | 0.00 | 49 | 1025.1 |
| 20260906080510 | 62 | 284 | 1.7 | 8.7 | 0.00 | 0.00 | 0.00 | 49 | 1025.1 |
| 20260906080010 | 62 | 274 | 5.2 | 8.7 | 0.00 | 0.00 | 0.00 | 48 | 1025.1 |
| 20260906075508 | 62 | 234 | 6.1 | 8.7 | 0.00 | 0.00 | 0.00 | 49 | 1025.2 |
| 20260906075007 | 62 | 217 | 5.2 | 8.7 | 0.00 | 0.00 | 0.00 | 49 | 1025.2 |
| 20260906074510 | 62 | 264 | 6.1 | 8.7 | 0.00 | 0.00 | 0.00 | 48 | 1025.2 |
| 20260906074004 | 62 | 271 | 5.2 | 9.6 | 0.00 | 0.00 | 0.00 | 48 | 1025.2 |
| 20260906073508 | 62 | 244 | 6.1 | 9.6 | 0.00 | 0.00 | 0.00 | 49 | 1025.1 |
| 20260906073008 | 62 | 239 | 6.1 | 8.7 | 0.00 | 0.00 | 0.00 | 49 | 1025.1 |
| 20260906072504 | 62 | 251 | 5.2 | 7.0 | 0.00 | 0.00 | 0.00 | 50 | 1025.1 |
| 20260906072005 | 61 | 256 | 0.9 | 9.6 | 0.00 | 0.00 | 0.00 | 50 | 1025.1 |
| 20260906071510 | 61 | 288 | 2.6 | 10.4 | 0.00 | 0.00 | 0.00 | 51 | 1025.1 |
| 20260906071006 | 61 | 281 | 7.0 | 10.4 | 0.00 | 0.00 | 0.00 | 51 | 1025.2 |
| 20260906070509 | 61 | 255 | 6.1 | 8.7 | 0.00 | 0.00 | 0.00 | 51 | 1025.2 |
| 20260906070014 | 61 | 273 | 4.3 | 7.0 | 0.00 | 0.00 | 0.00 | 50 | 1025.3 |
| 20260906065510 | 62 | 206 | 0.0 | 1.7 | 0.00 | 0.00 | 0.00 | 49 | 1025.4 |
| 20260906065011 | 63 | 206 | 0.0 | 1.7 | 0.00 | 0.00 | 0.00 | 48 | 1025.5 |
| 20260906064510 | 63 | 206 | 0.9 | 1.7 | 0.00 | 0.00 | 0.00 | 47 | 1025.5 |
| 20260906064006 | 63 | 206 | 0.0 | 1.7 | 0.00 | 0.00 | 0.00 | 47 | 1025.5 |
| 20260906063508 | 64 | 206 | 0.0 | 5.2 | 0.00 | 0.00 | 0.00 | 46 | 1025.7 |
| 20260906063012 | 64 | 206 | 0.0 | 6.1 | 0.00 | 0.00 | 0.00 | 46 | 1025.6 |
| 20260906062507 | 64 | 173 | 2.6 | 6.1 | 0.00 | 0.00 | 0.00 | 46 | 1025.5 |
| 20260906062008 | 64 | 246 | 2.6 | 5.2 | 0.00 | 0.00 | 0.00 | 46 | 1025.3 |
| 20260906061516 | 64 | 301 | 2.6 | 7.0 | 0.00 | 0.00 | 0.00 | 46 | 1025.2 |
| 20260906061008 | 65 | 259 | 2.6 | 8.7 | 0.00 | 0.00 | 0.00 | 46 | 1025.2 |
| 20260906060508 | 64 | 220 | 3.5 | 8.7 | 0.00 | 0.00 | 0.00 | 46 | 1025.2 |
| 20260906060011 | 64 | 261 | 6.1 | 9.6 | 0.00 | 0.00 | 0.00 | 46 | 1025.2 |
| 20260906055512 | 64 | 276 | 6.1 | 9.6 | 0.00 | 0.00 | 0.00 | 46 | 1025.3 |
| 20260906055008 | 64 | 248 | 7.0 | 9.6 | 0.00 | 0.00 | 0.00 | 47 | 1025.3 |
| 20260906054514 | 64 | 281 | 5.2 | 9.6 | 0.00 | 0.00 | 0.00 | 47 | 1025.3 |
| 20260906054010 | 63 | 249 | 7.0 | 9.6 | 0.00 | 0.00 | 0.00 | 48 | 1025.3 |
| 20260906053509 | 63 | 222 | 3.5 | 7.8 | 0.00 | 0.00 | 0.00 | 49 | 1025.4 |
| 20260906053011 | 62 | 225 | 3.5 | 6.1 | 0.00 | 0.00 | 0.00 | 49 | 1025.5 |
| 20260906052508 | 63 | 217 | 0.0 | 1.7 | 0.00 | 0.00 | 0.00 | 49 | 1025.5 |
| 20260906052012 | 63 | 217 | 0.0 | 1.7 | 0.00 | 0.00 | 0.00 | 49 | 1025.6 |
| 20260906051518 | 63 | 217 | 0.0 | 2.6 | 0.00 | 0.00 | 0.00 | 49 | 1025.6 |
| 20260906051012 | 63 | 217 | 0.0 | 10.4 | 0.00 | 0.00 | 0.00 | 49 | 1025.5 |
| 20260906050509 | 63 | 215 | 2.6 | 10.4 | 0.00 | 0.00 | 0.00 | 49 | 1025.5 |
| 20260906050043 | 62 | 255 | 7.0 | 9.6 | 0.00 | 0.00 | 0.00 | 49 | 1025.3 |
| 20260906045507 | 62 | 246 | 5.2 | 7.8 | 0.00 | 0.00 | 0.00 | 50 | 1025.1 |
| 20260906045010 | 62 | 243 | 5.2 | 7.8 | 0.00 | 0.00 | 0.00 | 50 | 1025.1 |
| 20260906044514 | 63 | 252 | 2.6 | 10.4 | 0.00 | 0.00 | 0.00 | 50 | 1025.1 |
| 20260906044012 | 63 | 286 | 3.5 | 10.4 | 0.00 | 0.00 | 0.00 | 50 | 1025.1 |
| 20260906043512 | 63 | 239 | 7.8 | 9.6 | 0.00 | 0.00 | 0.00 | 49 | 1025.1 |
| 20260906043018 | 63 | 257 | 1.7 | 7.0 | 0.00 | 0.00 | 0.00 | 49 | 1025.2 |
| 20260906042510 | 64 | 224 | 2.6 | 7.0 | 0.00 | 0.00 | 0.00 | 48 | 1025.1 |
| 20260906042013 | 64 | 319 | 0.9 | 7.0 | 0.00 | 0.00 | 0.00 | 48 | 1025.0 |
| 20260906041523 | 64 | 282 | 3.5 | 8.7 | 0.00 | 0.00 | 0.00 | 48 | 1025.0 |
| 20260906041017 | 64 | 232 | 2.6 | 9.6 | 0.00 | 0.00 | 0.00 | 48 | 1025.0 |
| 20260906040513 | 64 | 211 | 7.0 | 9.6 | 0.00 | 0.00 | 0.00 | 48 | 1025.0 |
| 20260906040018 | 65 | 257 | 3.5 | 7.8 | 0.00 | 0.00 | 0.00 | 48 | 1025.0 |
| 20260906035514 | 65 | 261 | 3.5 | 8.7 | 0.00 | 0.00 | 0.00 | 47 | 1025.0 |
| 20260906035012 | 65 | 243 | 5.2 | 8.7 | 0.00 | 0.00 | 0.00 | 47 | 1025.0 |
| 20260906034523 | 65 | 251 | 4.3 | 9.6 | 0.00 | 0.00 | 0.00 | 47 | 1025.1 |
| 20260906034010 | 66 | 236 | 4.3 | 9.6 | 0.00 | 0.00 | 0.00 | 47 | 1025.1 |
| 20260906033510 | 66 | 265 | 7.0 | 9.6 | 0.00 | 0.00 | 0.00 | 47 | 1025.1 |
| 20260906033027 | 66 | 257 | 3.5 | 9.6 | 0.00 | 0.00 | 0.00 | 47 | 1025.0 |
| 20260906032512 | 66 | 248 | 4.3 | 9.6 | 0.00 | 0.00 | 0.00 | 47 | 1025.0 |
| 20260906032014 | 66 | 259 | 6.1 | 9.6 | 0.00 | 0.00 | 0.00 | 47 | 1025.0 |
| 20260906031527 | 66 | 269 | 6.1 | 8.7 | 0.00 | 0.00 | 0.00 | 47 | 1025.0 |
| 20260906031013 | 66 | 255 | 4.3 | 6.1 | 0.00 | 0.00 | 0.00 | 47 | 1025.0 |
| 20260906030517 | 66 | 271 | 1.7 | 4.3 | 0.00 | 0.00 | 0.00 | 47 | 1024.9 |
| 20260906030021 | 67 | 242 | 1.7 | 3.5 | 0.00 | 0.00 | 0.00 | 46 | 1024.8 |
| 20260906025514 | 67 | 311 | 0.9 | 4.3 | 0.00 | 0.00 | 0.00 | 46 | 1024.8 |
| 20260906025017 | 67 | 253 | 1.7 | 7.0 | 0.00 | 0.00 | 0.00 | 46 | 1024.9 |
| 20260906024522 | 68 | 281 | 2.6 | 7.0 | 0.00 | 0.00 | 0.00 | 46 | 1024.8 |
| 20260906024016 | 68 | 277 | 0.9 | 5.2 | 0.00 | 0.00 | 0.00 | 46 | 1024.7 |
| 20260906023516 | 68 | 310 | 2.6 | 5.2 | 0.00 | 0.00 | 0.00 | 46 | 1024.6 |
| 20260906023025 | 68 | 331 | 0.9 | 5.2 | 0.00 | 0.00 | 0.00 | 45 | 1024.7 |
| 20260906022512 | 68 | 251 | 2.6 | 5.2 | 0.00 | 0.00 | 0.00 | 45 | 1024.6 |
| 20260906022012 | 69 | 267 | 1.7 | 3.5 | 0.00 | 0.00 | 0.00 | 45 | 1024.5 |
| 20260906021524 | 69 | 263 | 1.7 | 7.0 | 0.00 | 0.00 | 0.00 | 45 | 1024.4 |
| 20260906021014 | 69 | 271 | 1.7 | 7.0 | 0.00 | 0.00 | 0.00 | 45 | 1024.5 |
| 20260906020516 | 69 | 266 | 2.6 | 5.2 | 0.00 | 0.00 | 0.00 | 45 | 1024.4 |
| 20260906020027 | 69 | 278 | 2.6 | 7.0 | 0.00 | 0.00 | 0.00 | 45 | 1024.5 |
| 20260906015513 | 69 | 248 | 4.3 | 7.0 | 0.00 | 0.00 | 0.00 | 44 | 1024.5 |
| 20260906015014 | 68 | 287 | 2.6 | 5.2 | 0.00 | 0.00 | 0.00 | 44 | 1024.6 |
| 20260906014532 | 69 | 223 | 0.9 | 4.3 | 0.00 | 0.00 | 0.00 | 46 | 1024.5 |
| 20260906014015 | 69 | 328 | 0.0 | 1.7 | 0.00 | 0.00 | 0.00 | 44 | 1024.5 |
| 20260906013512 | 70 | 327 | 0.9 | 1.7 | 0.00 | 0.00 | 0.00 | 44 | 1024.4 |
| 20260906013027 | 70 | 297 | 0.9 | 2.6 | 0.00 | 0.00 | 0.00 | 44 | 1024.4 |
| 20260906012516 | 70 | 297 | 0.9 | 2.6 | 0.00 | 0.00 | 0.00 | 43 | 1024.5 |
| 20260906012013 | 71 | 329 | 0.9 | 3.5 | 0.00 | 0.00 | 0.00 | 43 | 1024.4 |
| 20260906011520 | 71 | 292 | 0.9 | 4.3 | 0.00 | 0.00 | 0.00 | 43 | 1024.5 |
| 20260906011015 | 72 | 330 | 1.7 | 4.3 | 0.00 | 0.00 | 0.00 | 41 | 1024.6 |
| 20260906010507 | 72 | 321 | 1.7 | 7.0 | 0.00 | 0.00 | 0.00 | 41 | 1024.7 |
| 20260906010029 | 72 | 305 | 0.0 | 7.0 | 0.00 | 0.00 | 0.00 | 42 | 1024.6 |
| 20260906005501 | 72 | 351 | 1.7 | 6.1 | 0.00 | 0.00 | 0.00 | 41 | 1024.7 |
| 20260906005003 | 72 | 298 | 3.5 | 7.0 | 0.00 | 0.00 | 0.00 | 41 | 1024.8 |
| 20260906004508 | 72 | 228 | 3.5 | 7.0 | 0.00 | 0.00 | 0.00 | 42 | 1024.7 |
| 20260906004005 | 72 | 292 | 3.5 | 7.0 | 0.00 | 0.00 | 0.00 | 41 | 1024.6 |
| 20260906003509 | 72 | 330 | 1.7 | 4.3 | 0.00 | 0.00 | 0.00 | 42 | 1024.6 |
| 20260906003010 | 72 | 318 | 1.7 | 5.2 | 0.00 | 0.00 | 0.00 | 42 | 1024.6 |
| 20260906002508 | 72 | 306 | 1.7 | 11.3 | 0.00 | 0.00 | 0.00 | 42 | 1024.6 |
| 20260906002008 | 72 | 261 | 4.3 | 11.3 | 0.00 | 0.00 | 0.00 | 42 | 1024.6 |
| 20260906001514 | 71 | 246 | 8.7 | 11.3 | 0.00 | 0.00 | 0.00 | 41 | 1024.6 |
| 20260906001010 | 71 | 261 | 6.1 | 9.6 | 0.00 | 0.00 | 0.00 | 41 | 1024.8 |
| 20260906000514 | 71 | 238 | 5.2 | 7.8 | 0.00 | 0.00 | 0.00 | 43 | 1024.8 |
| 20260906000030 | 71 | 298 | 2.6 | 5.2 | 0.00 | 0.00 | 0.00 | 1024.7 | |
| 20260905235515 | 71 | 221 | 1.7 | 5.2 | 0.00 | 0.00 | 0.00 | 44 | 1024.8 |
| 20260905235002 | 71 | 219 | 2.6 | 7.8 | 0.00 | 0.00 | 0.00 | 44 | 1024.8 |
| 20260905234504 | 70 | 219 | 3.5 | 8.7 | 0.00 | 0.00 | 0.00 | 44 | 1024.9 |
| 20260905234007 | 70 | 229 | 4.3 | 10.4 | 0.00 | 0.00 | 0.00 | 43 | 1025.1 |
| 20260905233508 | 70 | 254 | 7.0 | 13.0 | 0.00 | 0.00 | 0.00 | 45 | 1025.1 |
| 20260905233012 | 71 | 272 | 7.8 | 13.0 | 0.00 | 0.00 | 0.00 | 44 | 1025.2 |
| 20260905232514 | 72 | 338 | 6.1 | 15.6 | 0.00 | 0.00 | 0.00 | 41 | 1025.1 |
| 20260905232008 | 73 | 259 | 7.8 | 15.6 | 0.00 | 0.00 | 0.00 | 40 | 1024.9 |
| 20260905231514 | 75 | 273 | 7.0 | 12.2 | 0.00 | 0.00 | 0.00 | 34 | 1024.8 |
| 20260905231011 | 76 | 306 | 6.1 | 12.2 | 0.00 | 0.00 | 0.00 | 32 | 1024.7 |
| 20260905230509 | 77 | 299 | 5.2 | 12.2 | 0.00 | 0.00 | 0.00 | 31 | 1024.5 |
| 20260905230023 | 78 | 352 | 5.2 | 11.3 | 0.00 | 0.00 | 0.00 | 30 | 1024.2 |
| 20260905225513 | 79 | 300 | 2.6 | 8.7 | 0.00 | 0.00 | 0.00 | 27 | 1023.9 |
| 20260905225014 | 79 | 292 | 0.9 | 7.0 | 0.00 | 0.00 | 0.00 | 25 | 1023.8 |
| 20260905224527 | 80 | 332 | 3.5 | 7.0 | 0.00 | 0.00 | 0.00 | 25 | 1023.6 |
| 20260905224005 | 80 | 61 | 0.9 | 4.3 | 0.00 | 0.00 | 0.00 | 24 | 1023.5 |
| 20260905223503 | 81 | 61 | 2.6 | 4.3 | 0.00 | 0.00 | 0.00 | 23 | 1023.5 |
| 20260905223008 | 82 | 94 | 0.9 | 5.2 | 0.00 | 0.00 | 0.00 | 23 | 1023.4 |
| 20260905222510 | 82 | 82 | 1.7 | 7.0 | 0.00 | 0.00 | 0.00 | 23 | 1023.3 |
| 20260905222011 | 82 | 93 | 1.7 | 7.0 | 0.00 | 0.00 | 0.00 | 22 | 1023.4 |
| 20260905221511 | 83 | 169 | 0.9 | 7.8 | 0.00 | 0.00 | 0.00 | 22 | 1023.3 |
| 20260905221010 | 84 | 141 | 0.9 | 7.8 | 0.00 | 0.00 | 0.00 | 22 | 1023.2 |